| time (UTC) | temp F | wind direction | speed knots | gust knots | rain 1hr in | rain 24hr in | rain mn in | humidity % | barometer mb |
| 20260506051139 | 73 | 180 | 2.6 | 4.3 | 0.00 | 0.00 | 0.00 | 94 | 1000.7 |
| 20260506050140 | 74 | 171 | 0.9 | 2.6 | 0.00 | 0.00 | 0.00 | 94 | 1001.1 |
| 20260506044337 | 73 | 157 | 0.0 | 0.0 | 0.00 | 0.00 | 0.00 | 94 | 1001.1 |
| 20260506043340 | 74 | 179 | 1.7 | 7.0 | 0.00 | 0.00 | 0.00 | 95 | 1000.9 |
| 20260506042438 | 74 | 177 | 1.7 | 4.3 | 0.00 | 0.00 | 0.00 | 96 | 1000.7 |
| 20260506041441 | 74 | 180 | 0.0 | 0.0 | 0.00 | 0.00 | 0.00 | 96 | 1000.7 |
| 20260506040439 | 74 | 135 | 1.7 | 4.3 | 0.00 | 0.00 | 0.00 | 96 | 1000.4 |
| 20260506034438 | 74 | 175 | 3.5 | 7.0 | 0.00 | 0.00 | 0.00 | 96 | 1000.4 |
| 20260506033537 | 75 | 157 | 0.0 | 0.9 | 0.00 | 0.00 | 0.00 | 96 | 1000.4 |
| 20260506032539 | 75 | 170 | 0.0 | 0.9 | 0.00 | 0.00 | 0.00 | 96 | 1000.0 |
| 20260506030638 | 75 | 180 | 0.0 | 0.0 | 0.00 | 0.00 | 0.00 | 96 | 1000.0 |
| 20260506025638 | 75 | 135 | 0.0 | 0.0 | 0.00 | 0.00 | 0.00 | 96 | 999.7 |
| 20260506024736 | 75 | 180 | 0.0 | 0.0 | 0.00 | 0.00 | 0.00 | 95 | 999.7 |
| 20260506023739 | 76 | 180 | 0.9 | 4.3 | 0.00 | 0.00 | 0.00 | 95 | 999.4 |
| 20260506022740 | 76 | 180 | 0.0 | 0.0 | 0.00 | 0.00 | 0.00 | 95 | 999.0 |
| 20260506021739 | 76 | 157 | 0.0 | 0.0 | 0.00 | 0.00 | 0.00 | 93 | 998.6 |
| 20260506020736 | 76 | 112 | 0.0 | 0.0 | 0.00 | 0.00 | 0.00 | 93 | 998.6 |
| 20260506015836 | 76 | 112 | 0.0 | 0.0 | 0.00 | 0.00 | 0.00 | 92 | 998.3 |
| 20260506013837 | 77 | 157 | 0.0 | 0.0 | 0.00 | 0.00 | 0.00 | 90 | 998.3 |
| 20260506012840 | 78 | 157 | 0.0 | 1.7 | 0.00 | 0.00 | 0.00 | 89 | 998.3 |
| 20260506011840 | 78 | 180 | 0.0 | 0.0 | 0.00 | 0.00 | 0.00 | 88 | 998.3 |
| 20260506010938 | 78 | 157 | 0.0 | 0.0 | 0.00 | 0.00 | 0.00 | 86 | 997.9 |
| 20260506005938 | 79 | 180 | 0.0 | 0.0 | 0.00 | 0.00 | 0.00 | 85 | 997.9 |
| 20260506004939 | 79 | 157 | 0.0 | 0.0 | 0.00 | 0.00 | 0.00 | 85 | 997.9 |
| 20260506003939 | 79 | 180 | 0.0 | 0.0 | 0.00 | 0.00 | 0.00 | 84 | 997.9 |
| 20260506002938 | 80 | 180 | 0.0 | 0.0 | 0.00 | 0.00 | 0.00 | 83 | 997.9 |
| 20260506001037 | 80 | 162 | 0.0 | 1.7 | 0.00 | 0.00 | 0.00 | 81 | 997.6 |
| 20260506000136 | 80 | 180 | 0.0 | 2.6 | 0.00 | 0.00 | 0.00 | 81 | 997.6 |
| 20260505235138 | 80 | 180 | 1.7 | 4.3 | 0.00 | 0.00 | 0.00 | 81 | 997.3 |
| 20260505234138 | 80 | 180 | 0.0 | 0.0 | 0.00 | 0.00 | 0.00 | 80 | 997.3 |
| 20260505231139 | 81 | 189 | 0.0 | 1.7 | 0.00 | 0.00 | 0.00 | 78 | 997.3 |
| 20260505230237 | 81 | 135 | 0.0 | 0.0 | 0.00 | 0.00 | 0.00 | 78 | 997.3 |
| 20260505225236 | 81 | 180 | 0.0 | 1.7 | 0.00 | 0.00 | 0.00 | 76 | 997.3 |
| 20260505224238 | 81 | 139 | 0.0 | 0.0 | 0.00 | 0.00 | 0.00 | 74 | 997.3 |
| 20260505223237 | 82 | 157 | 0.9 | 1.7 | 0.00 | 0.00 | 0.00 | 71 | 997.3 |
| 20260505215337 | 82 | 180 | 0.0 | 0.0 | 0.00 | 0.00 | 0.00 | 71 | 997.3 |
| 20260505214338 | 84 | 181 | 1.7 | 6.1 | 0.00 | 0.00 | 0.00 | 70 | 997.3 |
| 20260505212440 | 84 | 174 | 0.9 | 2.6 | 0.00 | 0.00 | 0.00 | 71 | 997.3 |
| 20260505210536 | 83 | 175 | 2.6 | 5.2 | 0.00 | 0.00 | 0.00 | 71 | 997.9 |
| 20260505205538 | 83 | 143 | 0.9 | 3.5 | 0.00 | 0.00 | 0.00 | 73 | 997.9 |
| 20260505204538 | 83 | 180 | 0.0 | 3.5 | 0.00 | 0.00 | 0.00 | 74 | 998.3 |
| 20260505203537 | 80 | 162 | 1.7 | 4.3 | 0.00 | 0.00 | 0.00 | 80 | 999.0 |
| 20260505201538 | 81 | 170 | 2.6 | 6.1 | 0.00 | 0.00 | 0.00 | 79 | 999.0 |
| 20260505195637 | 79 | 159 | 0.0 | 2.6 | 0.00 | 0.00 | 0.00 | 82 | 999.4 |
| 20260505194640 | 79 | 171 | 0.9 | 5.2 | 0.00 | 0.00 | 0.00 | 81 | 999.4 |
| 20260505193639 | 78 | 179 | 2.6 | 4.3 | 0.00 | 0.00 | 0.00 | 84 | 999.7 |
| 20260505192636 | 78 | 196 | 1.7 | 7.0 | 0.00 | 0.00 | 0.00 | 84 | 999.7 |
| 20260505191639 | 79 | 169 | 2.6 | 7.0 | 0.00 | 0.00 | 0.00 | 83 | 999.7 |
| 20260505190736 | 79 | 176 | 2.6 | 5.2 | 0.00 | 0.00 | 0.00 | 83 | 999.7 |
| 20260505185739 | 78 | 167 | 2.6 | 7.8 | 0.00 | 0.00 | 0.00 | 86 | 1000.0 |
| 20260505183838 | 78 | 162 | 0.0 | 1.7 | 0.00 | 0.00 | 0.00 | 87 | 1000.4 |
| 20260505182837 | 78 | 180 | 0.0 | 3.5 | 0.00 | 0.00 | 0.00 | 88 | 1000.4 |
| 20260505180838 | 76 | 138 | 1.7 | 3.5 | 0.00 | 0.00 | 0.00 | 92 | 1000.7 |
| 20260505175839 | 75 | 161 | 0.9 | 5.2 | 0.00 | 0.00 | 0.00 | 92 | 1001.1 |
| 20260505174838 | 74 | 137 | 1.7 | 5.2 | 0.00 | 0.00 | 0.00 | 92 | 1001.1 |
| 20260505173837 | 74 | 204 | 0.9 | 2.6 | 0.00 | 0.00 | 0.00 | 94 | 1001.4 |
| 20260505172838 | 74 | 27 | 0.0 | 4.3 | 0.00 | 0.00 | 0.00 | 94 | 1001.4 |
| 20260505171936 | 74 | 142 | 0.0 | 2.6 | 0.00 | 0.00 | 0.00 | 94 | 1001.4 |
| 20260505170939 | 74 | 164 | 1.7 | 4.3 | 0.00 | 0.00 | 0.00 | 94 | 1001.4 |
| 20260505165037 | 74 | 172 | 3.5 | 6.1 | 0.00 | 0.00 | 0.00 | 95 | 1001.4 |
| 20260505164037 | 73 | 180 | 0.0 | 0.0 | 0.00 | 0.00 | 0.00 | 97 | 1001.4 |
| 20260505163136 | 72 | 180 | 0.9 | 4.3 | 0.00 | 0.00 | 0.00 | 97 | 1001.4 |
| 20260505162137 | 71 | 172 | 2.6 | 5.2 | 0.00 | 0.00 | 0.00 | 97 | 1001.7 |
| 20260505161236 | 71 | 104 | 0.0 | 4.3 | 0.00 | 0.00 | 0.00 | 97 | 1002.1 |
| 20260505160238 | 71 | 165 | 2.6 | 4.3 | 0.00 | 0.00 | 0.00 | 97 | 1002.1 |
| 20260505153337 | 70 | 268 | 0.0 | 0.0 | 0.00 | 0.00 | 0.00 | 96 | 1002.1 |
| 20260505152338 | 70 | 176 | 1.7 | 4.3 | 0.00 | 0.00 | 0.00 | 96 | 1001.9 |
| 20260505150337 | 70 | 135 | 0.0 | 1.7 | 0.00 | 0.00 | 0.00 | 94 | 1001.7 |
| 20260505140537 | 69 | 167 | 1.7 | 4.3 | 0.00 | 0.00 | 0.00 | 92 | 1001.4 |
| 20260505123739 | 68 | 170 | 2.6 | 4.3 | 0.00 | 0.00 | 0.00 | 89 | 1000.7 |
| 20260505121738 | 68 | 174 | 2.6 | 5.2 | 0.00 | 0.00 | 0.00 | 90 | 1000.7 |
| 20260505120837 | 68 | 164 | 2.6 | 5.2 | 0.00 | 0.00 | 0.00 | 91 | 1000.7 |
| 20260505115838 | 68 | 157 | 0.9 | 2.6 | 0.00 | 0.00 | 0.00 | 92 | 1000.0 |
| 20260505114837 | 68 | 169 | 0.9 | 3.5 | 0.00 | 0.00 | 0.00 | 93 | 1000.0 |
| 20260505113838 | 68 | 144 | 1.7 | 4.3 | 0.00 | 0.00 | 0.00 | 94 | 1000.0 |
| 20260505111937 | 67 | 180 | 0.0 | 0.0 | 0.00 | 0.00 | 0.00 | 94 | 1000.0 |
| 20260505110938 | 67 | 161 | 1.7 | 7.0 | 0.00 | 0.00 | 0.00 | 94 | 1000.4 |
| 20260505102036 | 68 | 178 | 2.6 | 5.2 | 0.00 | 0.00 | 0.00 | 95 | 1000.7 |
| 20260505101039 | 68 | 180 | 1.7 | 5.2 | 0.00 | 0.00 | 0.00 | 95 | 1000.7 |
| 20260505094036 | 68 | 159 | 1.7 | 3.5 | 0.00 | 0.00 | 0.00 | 96 | 1000.7 |
| 20260505093038 | 68 | 180 | 0.0 | 0.9 | 0.00 | 0.00 | 0.00 | 96 | 1001.1 |
| 20260505092039 | 68 | 157 | 0.9 | 4.3 | 0.00 | 0.00 | 0.00 | 96 | 1000.7 |
| 20260505091037 | 68 | 146 | 2.6 | 5.2 | 0.00 | 0.00 | 0.00 | 96 | 1001.1 |
| 20260505090038 | 68 | 162 | 1.7 | 4.3 | 0.00 | 0.00 | 0.00 | 96 | 1000.7 |
| 20260505085037 | 68 | 166 | 2.6 | 7.8 | 0.00 | 0.00 | 0.00 | 96 | 1000.7 |
| 20260505083038 | 68 | 171 | 2.6 | 6.1 | 0.00 | 0.00 | 0.00 | 96 | 1001.4 |
| 20260505082037 | 68 | 136 | 0.9 | 4.3 | 0.00 | 0.00 | 0.00 | 96 | 1001.1 |
| 20260505081037 | 68 | 163 | 0.9 | 2.6 | 0.00 | 0.00 | 0.00 | 96 | 1001.4 |
| 20260505080038 | 68 | 140 | 1.7 | 5.2 | 0.00 | 0.00 | 0.00 | 96 | 1001.4 |
| 20260505075037 | 68 | 170 | 3.5 | 5.2 | 0.00 | 0.00 | 0.00 | 96 | 1001.4 |
| 20260505074036 | 68 | 183 | 2.6 | 5.2 | 0.00 | 0.00 | 0.00 | 96 | 1001.4 |
| 20260505073037 | 68 | 113 | 0.9 | 3.5 | 0.00 | 0.00 | 0.00 | 96 | 1001.7 |
| 20260505072037 | 68 | 161 | 0.0 | 2.6 | 0.00 | 0.00 | 0.00 | 96 | 1001.7 |
| 20260505071037 | 68 | 165 | 3.5 | 6.1 | 0.00 | 0.00 | 0.00 | 96 | 1001.7 |
| 20260505070038 | 68 | 148 | 0.9 | 3.5 | 0.00 | 0.00 | 0.00 | 96 | 1002.1 |
| 20260505065035 | 69 | 189 | 1.7 | 4.3 | 0.00 | 0.00 | 0.00 | 96 | 1002.1 |
| 20260505064037 | 69 | 162 | 2.6 | 6.1 | 0.00 | 0.00 | 0.00 | 96 | 1002.1 |
| 20260505063038 | 69 | 170 | 2.6 | 5.2 | 0.00 | 0.00 | 0.00 | 96 | 1002.4 |
| 20260505062038 | 69 | 168 | 0.9 | 2.6 | 0.00 | 0.00 | 0.00 | 96 | 1002.4 |
| 20260505060136 | 69 | 163 | 2.6 | 7.0 | 0.00 | 0.00 | 0.00 | 96 | 1002.4 |